period_start,C,m1,H,J0,J1,J2,J3,J4,J5,JA,JB,JC,JD,JJ,JK,JN,#
2014-09-30 00:00:42,-0.01,0.33,0.00,24.85,28.55,31.04,9.55,37.89,1015.15,2032.77,3389.22,3217.00,3480.86,500.26,493.05,20.50,0000 0000 0000 0000 000000
2014-09-30 00:05:43,0.01,0.33,0.00,24.88,28.56,31.10,9.43,37.82,1015.15,2032.68,3389.01,3216.98,3480.30,499.90,492.70,20.54,0000 0000 0000 0000 000000
2014-09-30 00:10:44,0.01,0.33,0.00,24.93,28.57,31.10,9.39,37.73,1015.15,2032.54,3388.99,3216.93,3480.01,499.85,492.55,20.58,0000 0000 0000 0000 000000
2014-09-30 00:15:46,0.03,0.33,0.00,24.93,28.56,31.10,9.58,37.97,1015.15,2032.84,3388.97,3216.83,3480.00,500.57,493.24,20.62,0000 0000 0000 0000 000000
2014-09-30 00:20:47,0.01,0.33,0.00,24.93,28.55,31.09,9.50,37.77,1015.15,2032.78,3388.64,3216.40,3480.00,499.88,492.69,20.66,0000 0000 0000 0000 000000
2014-09-30 00:25:48,0.02,0.33,0.00,24.96,28.55,31.07,9.43,37.80,1015.14,2032.82,3388.08,3216.11,3479.98,499.84,492.71,20.71,0000 0000 0000 0000 000000
2014-09-30 00:30:49,0.01,0.33,0.00,24.97,28.53,31.08,9.48,37.83,1015.09,2032.91,3388.01,3216.01,3479.96,500.05,492.70,20.75,0000 0000 0000 0000 000000
2014-09-30 00:35:50,0.00,0.33,0.00,24.98,28.52,31.05,9.43,37.77,1015.09,2032.96,3388.00,3216.01,3479.90,499.56,492.20,20.79,0000 0000 0000 0000 000000
2014-09-30 00:40:51,0.01,0.33,0.00,25.01,28.50,31.05,9.50,37.77,1015.12,2032.97,3387.99,3216.00,3479.66,500.24,492.90,20.83,0000 0000 0000 0000 000000
2014-09-30 00:45:52,0.00,0.33,0.00,25.02,28.50,31.05,9.44,37.82,1015.14,2032.98,3387.97,3216.00,3479.30,500.11,492.67,20.87,0000 0000 0000 0000 000000
2014-09-30 00:50:53,0.01,0.33,0.00,25.02,28.47,31.04,9.45,37.85,1015.14,2032.99,3387.80,3216.00,3479.25,500.01,492.64,20.92,0000 0000 0000 0000 000000
2014-09-30 00:55:54,0.01,0.33,0.00,25.04,28.47,31.04,9.58,37.90,1015.14,2032.99,3387.39,3216.00,3479.08,500.46,492.95,20.96,0000 0000 0000 0000 000000
2014-09-30 01:00:56,0.04,0.33,0.00,24.98,28.45,31.01,9.48,38.04,1015.15,2033.00,3386.67,3215.39,3478.39,499.79,492.48,21.00,0000 0000 0000 0000 000000
2014-09-30 01:05:57,1.48,0.37,0.00,24.78,28.47,30.96,9.47,42.44,1015.15,2033.14,3372.21,3195.02,3457.15,500.16,492.97,21.04,0000 0000 0000 0000 000000
2014-09-30 01:10:58,0.05,0.40,0.00,24.82,28.47,30.95,9.44,38.33,1015.15,2033.00,3370.01,3190.55,3453.02,499.80,492.87,21.08,0000 0000 0000 0000 000000
2014-09-30 01:16:00,0.01,0.40,0.00,24.80,28.47,30.97,9.49,38.19,1015.15,2033.00,3369.95,3190.07,3452.95,500.12,493.11,21.13,0000 0000 0000 0000 000000
2014-09-30 01:21:01,0.02,0.40,0.00,24.73,28.46,31.00,9.49,38.24,1015.15,2033.00,3369.47,3190.00,3452.65,500.20,493.26,21.17,0000 0000 0000 0000 000000
2014-09-30 01:26:02,0.01,0.40,0.00,24.66,28.45,30.98,9.45,38.22,1015.15,2032.99,3369.02,3190.00,3452.17,499.77,493.02,21.21,0000 0000 0000 0000 000000
2014-09-30 01:31:03,0.00,0.40,0.00,24.63,28.45,30.97,9.53,38.05,1015.15,2032.99,3369.00,3190.00,3452.02,500.15,493.45,21.25,0000 0000 0000 0000 000000
2014-09-30 01:36:04,0.00,0.40,0.00,24.61,28.45,30.95,9.56,38.02,1015.15,2032.99,3368.96,3189.98,3452.00,499.82,493.34,21.29,0000 0000 0000 0000 000000
2014-09-30 01:41:06,0.00,0.40,0.00,24.61,28.43,30.95,9.46,37.88,1015.15,2032.99,3368.69,3189.92,3452.00,499.75,493.16,21.33,0000 0000 0000 0000 000000
2014-09-30 01:46:07,0.03,0.40,0.00,24.63,28.42,30.96,9.50,37.98,1015.15,2032.99,3368.06,3189.30,3451.98,500.13,493.33,21.38,0000 0000 0000 0000 000000
2014-09-30 01:51:08,0.00,0.40,0.00,24.64,28.42,30.96,9.36,37.87,1015.15,2032.99,3368.00,3189.05,3451.93,499.98,493.21,21.42,0000 0000 0000 0000 000000
2014-09-30 01:56:09,0.00,0.40,0.00,24.65,28.42,30.95,9.51,37.90,1015.16,2032.99,3367.98,3189.04,3451.80,500.32,493.49,21.46,0000 0000 0000 0000 000000
2014-09-30 02:01:10,0.01,0.40,0.00,24.67,28.42,30.94,9.54,37.94,1015.16,2033.00,3367.76,3189.00,3451.23,500.29,493.48,21.50,0000 0000 0000 0000 000000
2014-09-30 02:06:11,0.01,0.40,0.00,24.74,28.43,30.98,9.38,37.80,1015.16,2033.00,3367.12,3189.00,3451.02,499.74,492.95,21.54,0000 0000 0000 0000 000000
2014-09-30 02:11:13,0.00,0.40,0.00,24.78,28.45,30.97,9.58,37.94,1015.15,2033.00,3367.00,3188.90,3451.00,500.18,493.23,21.59,0000 0000 0000 0000 000000
2014-09-30 02:16:14,0.02,0.40,0.00,24.80,28.45,30.98,9.38,37.85,1015.15,2033.00,3366.97,3188.40,3450.95,499.73,492.79,21.63,0000 0000 0000 0000 000000
2014-09-30 02:21:15,0.03,0.41,0.00,24.84,28.46,31.01,9.38,37.82,1015.16,2033.00,3366.51,3188.07,3450.41,499.81,492.69,21.67,0000 0000 0000 0000 000000
2014-09-30 02:26:16,0.01,0.41,0.00,24.87,28.47,31.01,9.42,37.76,1015.17,2033.00,3366.03,3188.00,3450.04,500.14,493.05,21.71,0000 0000 0000 0000 000000
2014-09-30 02:31:17,0.00,0.41,0.00,24.90,28.48,31.03,9.34,37.71,1015.17,2033.00,3365.99,3187.98,3450.00,499.19,492.10,21.75,0000 0000 0000 0000 000000
2014-09-30 02:36:18,0.04,0.41,0.00,24.92,28.50,31.04,9.49,37.88,1015.17,2032.99,3365.63,3187.41,3449.78,499.73,492.55,21.80,0000 0000 0000 0000 000000
2014-09-30 02:41:20,0.02,0.41,0.00,24.97,28.51,31.06,9.33,37.65,1015.17,2032.97,3365.03,3187.01,3449.08,499.64,492.28,21.84,0000 0000 0000 0000 000000
2014-09-30 02:46:21,-0.00,0.41,0.00,24.99,28.53,31.09,9.38,37.75,1015.18,2032.92,3364.94,3186.97,3448.99,499.82,492.59,21.88,0000 0000 0000 0000 000000
2014-09-30 02:51:22,0.02,0.41,0.00,25.01,28.55,31.11,9.45,37.56,1015.17,2032.84,3364.29,3186.62,3448.80,500.02,492.81,21.92,0000 0000 0000 0000 000000
2014-09-30 02:56:24,-0.00,0.41,0.00,25.05,28.57,31.14,9.58,37.78,1015.16,2032.55,3364.01,3186.07,3448.07,500.60,493.24,21.96,0000 0000 0000 0000 000000
2014-09-30 03:01:25,-0.03,0.41,0.00,25.08,28.59,31.14,9.46,37.77,1015.16,2032.28,3363.87,3185.98,3447.99,500.00,492.46,22.01,0000 0000 0000 0000 000000
2014-09-30 03:06:26,0.02,0.41,0.00,25.10,28.61,31.17,9.48,37.72,1015.17,2032.07,3363.16,3185.72,3447.78,499.98,492.51,22.05,0000 0000 0000 0000 000000
2014-09-30 03:11:28,0.02,0.41,0.00,25.14,28.62,31.22,9.32,37.59,1015.18,2032.03,3362.98,3185.10,3447.11,499.73,492.13,22.09,0000 0000 0000 0000 000000
2014-09-30 03:16:29,0.01,0.41,0.00,25.18,28.65,31.23,9.39,37.56,1015.17,2032.01,3362.66,3185.00,3446.99,499.57,491.94,22.13,0000 0000 0000 0000 000000
2014-09-30 03:21:30,0.01,0.41,0.00,25.21,28.67,31.23,9.45,37.64,1015.17,2032.01,3362.05,3184.86,3446.78,499.88,492.32,22.17,0000 0000 0000 0000 000000
2014-09-30 03:26:32,0.03,0.41,0.00,25.24,28.70,31.26,9.41,37.73,1015.17,2032.00,3361.97,3184.28,3446.11,500.28,492.54,22.22,0000 0000 0000 0000 000000
2014-09-30 03:31:33,0.01,0.41,0.00,25.28,28.72,31.29,9.51,37.67,1015.21,2032.00,3361.42,3184.00,3446.00,500.07,492.43,22.26,0000 0000 0000 0000 000000
2014-09-30 03:36:34,0.02,0.41,0.00,25.28,28.74,31.30,9.40,37.62,1015.26,2032.00,3360.99,3183.93,3445.52,499.94,492.18,22.30,0000 0000 0000 0000 000000
2014-09-30 03:41:35,0.04,0.42,0.00,25.30,28.76,31.32,9.53,37.58,1015.41,2031.99,3360.35,3183.18,3445.01,500.33,492.51,22.34,0000 0000 0000 0000 000000
2014-09-30 03:46:36,0.00,0.42,0.00,25.34,28.79,31.35,9.43,37.59,1015.58,2031.98,3360.00,3182.98,3444.80,499.87,492.22,22.38,0000 0000 0000 0000 000000
2014-09-30 03:51:37,0.04,0.42,0.00,25.39,28.82,31.39,9.52,37.62,1015.62,2031.91,3359.34,3182.43,3444.07,500.37,492.55,22.42,0000 0000 0000 0000 000000
2014-09-30 03:56:39,-0.02,0.42,0.00,25.44,28.85,31.41,9.49,37.60,1015.64,2031.64,3358.96,3182.00,3443.79,499.98,492.04,22.47,0000 0000 0000 0000 000000
2014-09-30 04:01:40,0.00,0.42,0.00,25.49,28.88,31.44,9.46,37.66,1015.64,2031.25,3358.28,3181.55,3443.07,500.27,492.31,22.51,0000 0000 0000 0000 000000
2014-09-30 04:06:41,0.00,0.42,0.00,25.53,28.91,31.47,9.53,37.72,1015.64,2031.04,3357.90,3181.01,3442.82,500.16,492.15,22.55,0000 0000 0000 0000 000000
2014-09-30 04:11:42,0.05,0.42,0.00,25.58,28.94,31.50,9.43,37.73,1015.64,2031.00,3357.13,3180.58,3442.08,499.57,491.62,22.59,0000 0000 0000 0000 000000
2014-09-30 04:16:43,0.02,0.42,0.00,25.64,28.97,31.53,9.44,37.74,1015.64,2031.00,3356.52,3180.01,3441.73,499.79,491.72,22.63,0000 0000 0000 0000 000000
2014-09-30 04:21:44,0.03,0.42,0.00,25.68,29.01,31.55,9.32,37.83,1015.64,2031.00,3355.96,3179.62,3441.02,499.76,491.54,22.68,0000 0000 0000 0000 000000
2014-09-30 04:26:45,0.04,0.42,0.00,25.72,29.04,31.59,9.49,37.82,1015.65,2030.97,3355.17,3179.01,3440.52,499.89,491.46,22.72,0000 0000 0000 0000 000000
2014-09-30 04:31:47,0.00,0.42,0.00,25.77,29.07,31.64,9.42,37.75,1015.66,2030.81,3354.79,3178.58,3440.00,500.13,491.64,22.76,0000 0000 0000 0000 000000
2014-09-30 04:36:48,-0.02,0.42,0.00,25.81,29.11,31.67,9.49,37.77,1015.68,2030.27,3354.04,3178.00,3439.34,499.98,491.53,22.80,0000 0000 0000 0000 000000
2014-09-30 04:41:49,0.03,0.42,0.00,25.86,29.15,31.72,9.41,37.59,1015.75,2030.04,3353.21,3177.32,3438.84,500.05,491.64,22.84,0000 0000 0000 0000 000000
2014-09-30 04:46:50,0.03,0.43,0.00,25.89,29.18,31.74,9.45,37.67,1015.94,2030.00,3352.60,3176.88,3438.05,499.96,491.30,22.89,0000 0000 0000 0000 000000
2014-09-30 04:51:51,0.04,0.43,0.00,25.92,29.22,31.78,9.34,37.62,1015.90,2030.00,3351.90,3176.07,3437.42,499.98,491.86,22.93,0000 0000 0000 0000 000000
2014-09-30 04:56:53,0.03,0.43,0.00,25.96,29.26,31.83,9.52,37.52,1016.01,2029.98,3351.08,3175.67,3436.89,500.35,491.96,22.97,0000 0000 0000 0000 000000
2014-09-30 05:01:54,0.02,0.43,0.00,25.97,29.30,31.86,9.45,37.53,1016.13,2029.83,3350.16,3174.95,3436.06,500.05,491.43,23.01,0000 0000 0000 0000 000000
2014-09-30 05:06:55,0.02,0.43,0.00,25.97,29.33,31.91,9.36,37.56,1016.13,2029.45,3349.21,3174.10,3435.20,500.03,491.66,23.05,0000 0000 0000 0000 000000
2014-09-30 05:11:57,0.03,0.43,0.00,26.00,29.37,31.95,9.49,37.55,1016.13,2029.05,3348.25,3173.33,3434.40,500.44,492.01,23.10,0000 0000 0000 0000 000000
2014-09-30 05:16:58,0.02,0.43,0.00,26.03,29.41,31.98,9.33,37.55,1016.13,2029.01,3347.59,3172.94,3433.91,499.83,491.19,23.14,0000 0000 0000 0000 000000
2014-09-30 05:22:00,0.05,0.44,0.00,26.09,29.44,32.01,9.36,37.58,1016.13,2029.00,3346.86,3172.13,3433.08,499.87,491.40,23.18,0000 0000 0000 0000 000000
2014-09-30 05:27:01,0.05,0.44,0.00,26.12,29.48,32.05,9.39,37.67,1016.14,2029.00,3346.02,3171.48,3432.36,499.85,491.09,23.22,0000 0000 0000 0000 000000
2014-09-30 05:32:02,0.04,0.44,0.00,26.11,29.51,32.08,9.35,37.73,1016.14,2028.99,3345.12,3170.88,3431.67,499.82,491.19,23.26,0000 0000 0000 0000 000000
2014-09-30 05:37:03,0.04,0.44,0.00,26.15,29.55,32.20,9.33,37.72,1016.13,2028.85,3344.07,3170.07,3430.78,499.60,490.79,23.31,0000 0000 0000 0000 000010
2014-09-30 05:42:04,-0.04,0.44,0.00,26.24,29.62,32.28,4.79,26.27,1016.13,2028.56,3344.00,3169.89,3430.00,351.63,345.50,23.33,0000 0000 0000 0000 000000
2014-09-30 05:47:06,0.02,0.44,0.00,26.25,29.68,32.34,4.71,26.15,1016.14,2028.05,3343.51,3169.08,3429.19,349.81,343.60,23.36,0000 0000 0000 0000 000000
2014-09-30 05:52:09,0.06,0.44,0.00,26.25,29.73,32.41,4.74,26.05,1016.15,2028.00,3342.80,3168.59,3428.61,349.86,343.61,23.39,0000 0000 0000 0000 000000
2014-09-30 05:57:10,0.04,0.44,0.00,26.27,29.78,32.45,4.70,25.93,1016.29,2028.00,3341.96,3167.95,3427.89,350.08,343.86,23.42,0000 0000 0000 0000 000000
2014-09-30 06:02:12,0.08,0.45,0.00,26.29,29.82,32.50,4.66,25.89,1016.38,2027.96,3341.03,3167.10,3427.04,349.63,343.63,23.45,0000 0000 0000 0000 000000
2014-09-30 06:07:13,0.03,0.45,0.00,26.33,29.86,32.51,4.72,25.88,1016.36,2027.70,3340.18,3166.47,3426.22,349.83,343.50,23.48,0000 0000 0000 0000 000000
2014-09-30 06:12:14,-0.01,0.45,0.00,26.32,29.91,32.56,4.72,25.84,1016.41,2027.10,3339.33,3165.77,3425.45,350.19,343.90,23.51,0000 0000 0000 0000 000000
2014-09-30 06:17:15,0.04,0.45,0.00,26.34,29.95,32.53,4.64,25.88,1016.57,2027.01,3338.56,3165.04,3424.90,349.36,343.19,23.54,0000 0000 0000 0000 000000
2014-09-30 06:22:17,0.07,0.45,0.00,26.36,29.98,32.62,4.74,25.90,1016.57,2027.00,3337.86,3164.46,3424.12,350.57,344.24,23.57,0000 0000 0000 0000 000000
2014-09-30 06:27:18,0.04,0.45,0.00,26.41,30.02,32.57,4.76,25.98,1016.58,2026.99,3337.04,3163.93,3423.54,350.17,344.15,23.60,0000 0000 0000 0000 000000
2014-09-30 06:38:07,0.00,0.46,0.00,26.45,30.09,32.60,4.66,26.00,1016.62,2026.53,3335.29,3162.51,3422.03,349.96,343.57,23.66,0000 0000 0000 0000 000000
2014-09-30 06:43:08,0.01,0.46,0.00,26.47,30.13,32.62,4.74,25.88,1016.62,2026.09,3334.39,3161.89,3421.20,351.02,344.71,23.69,0000 0000 0000 0000 000000
2014-09-30 06:48:09,0.07,0.46,0.00,26.49,30.16,32.64,4.71,26.08,1016.63,2026.01,3333.54,3161.07,3420.48,349.80,343.45,23.72,0000 0000 0000 0000 000000
2014-09-30 06:53:10,0.06,0.46,0.00,26.50,30.19,32.77,4.70,26.02,1016.63,2026.00,3332.69,3160.51,3419.87,349.82,343.50,23.75,0000 0000 0000 0000 000000
2014-09-30 06:58:11,0.08,0.46,0.00,26.53,30.22,32.75,4.72,26.15,1016.63,2025.99,3331.66,3159.77,3418.95,350.00,343.56,23.78,0000 0000 0000 0000 000000
2014-09-30 07:03:13,0.06,0.46,0.00,26.57,30.26,32.73,4.68,26.04,1016.64,2025.93,3330.69,3159.01,3418.07,349.44,342.91,23.81,0000 0000 0000 0000 000000
2014-09-30 07:08:14,0.03,0.47,0.00,26.60,30.28,32.78,4.69,25.90,1016.67,2025.66,3329.78,3158.21,3417.34,350.11,343.53,23.84,0000 0000 0000 0000 000000
2014-09-30 07:13:15,0.02,0.47,0.00,26.61,30.32,32.86,4.70,25.93,1016.77,2025.23,3328.75,3157.49,3416.58,349.78,343.40,23.87,0000 0000 0000 0000 000000
2014-09-30 07:18:16,0.04,0.47,0.00,26.63,30.35,32.90,4.67,26.04,1016.77,2025.01,3327.84,3156.77,3415.80,349.73,343.32,23.90,0000 0000 0000 0000 000000
2014-09-30 07:23:17,0.06,0.47,0.00,26.66,30.38,32.94,4.75,25.99,1016.92,2025.00,3327.01,3156.03,3415.02,349.66,343.28,23.93,0000 0000 0000 0000 000000
2014-09-30 07:28:18,0.09,0.47,0.00,26.68,30.41,32.97,4.73,26.01,1017.02,2025.00,3326.04,3155.28,3414.15,350.01,343.66,23.95,0000 0000 0000 0000 000000
2014-09-30 07:33:20,0.09,0.47,0.00,26.70,30.44,33.00,4.72,25.99,1017.08,2024.98,3324.97,3154.43,3413.24,350.16,343.76,23.98,0000 0000 0000 0000 000000
2014-09-30 07:38:21,0.06,0.48,0.00,26.72,30.47,33.04,4.70,26.02,1017.10,2024.90,3323.92,3153.73,3412.42,349.52,343.10,24.01,0000 0000 0000 0000 000000
2014-09-30 07:43:22,0.03,0.48,0.00,26.74,30.50,33.07,4.65,25.98,1017.10,2024.71,3323.00,3153.00,3411.74,349.78,343.28,24.04,0000 0000 0000 0000 000000
2014-09-30 07:48:24,-0.01,0.48,0.00,26.76,30.53,33.11,4.68,25.99,1017.10,2024.20,3322.09,3152.20,3410.93,349.79,343.27,24.07,0000 0000 0000 0000 000000
2014-09-30 07:53:25,0.07,0.48,0.00,26.79,30.56,33.12,4.73,25.93,1017.10,2024.06,3321.15,3151.56,3410.07,350.46,343.89,24.10,0000 0000 0000 0000 000000
2014-09-30 07:58:26,0.07,0.48,0.00,26.82,30.59,33.15,4.65,26.10,1017.10,2024.00,3320.15,3150.80,3409.24,349.79,343.07,24.13,0000 0000 0000 0000 000000
2014-09-30 08:03:27,0.08,0.48,0.00,26.82,30.61,33.17,4.72,26.08,1017.10,2023.99,3319.11,3150.01,3408.38,349.99,343.38,24.16,0000 0000 0000 0000 000000
2014-09-30 08:08:29,0.08,0.49,0.00,26.82,30.64,33.21,4.78,26.08,1017.10,2023.99,3318.24,3149.22,3407.71,350.19,343.55,24.19,0000 0000 0000 0000 000000
2014-09-30 08:13:30,0.07,0.49,0.00,26.81,30.67,33.27,4.80,26.11,1017.11,2023.97,3317.23,3148.56,3406.94,350.64,343.73,24.22,0000 0000 0000 0000 000000
2014-09-30 08:18:31,0.04,0.49,0.00,26.80,30.70,33.29,4.61,25.95,1017.12,2023.88,3316.38,3147.96,3406.10,349.62,343.28,24.25,0000 0000 0000 0000 000000
2014-09-30 08:23:33,0.08,0.49,0.00,26.82,30.72,33.31,4.74,26.08,1017.19,2023.74,3315.58,3147.19,3405.50,349.88,343.34,24.28,0000 0000 0000 0000 000000
2014-09-30 08:28:34,-0.02,0.49,0.00,26.84,30.75,33.31,4.76,25.98,1017.27,2023.42,3314.77,3146.76,3404.93,350.22,343.67,24.31,0000 0000 0000 0000 000000
2014-09-30 08:33:35,0.03,0.49,0.00,26.84,30.77,33.24,4.69,25.97,1017.23,2023.08,3313.79,3145.98,3404.10,349.87,343.39,24.34,0000 0000 0000 0000 000000
2014-09-30 08:38:36,0.08,0.49,0.00,26.85,30.79,33.24,4.68,26.05,1017.37,2023.01,3312.93,3145.14,3403.25,349.51,342.98,24.36,0000 0000 0000 0000 000000
2014-09-30 08:43:37,0.04,0.50,0.00,26.88,30.81,33.27,4.76,25.98,1017.51,2023.00,3312.08,3144.82,3402.82,349.73,343.03,24.39,0000 0000 0000 0000 000000
2014-09-30 08:48:39,0.07,0.50,0.00,26.90,30.84,33.28,4.70,25.92,1017.58,2023.00,3311.57,3144.05,3402.05,349.92,343.45,24.42,0000 0000 0000 0000 000000
2014-09-30 08:53:40,0.08,0.50,0.00,26.91,30.86,33.32,4.66,25.96,1017.59,2022.99,3310.62,3143.59,3401.45,349.51,343.02,24.45,0000 0000 0000 0000 000000
2014-09-30 08:58:41,0.03,0.50,0.00,26.95,30.88,33.32,4.67,25.87,1017.59,2022.98,3309.79,3142.98,3400.84,349.94,343.54,24.48,0000 0000 0000 0000 000000
2014-09-30 09:03:42,0.06,0.50,0.00,26.98,30.90,33.34,4.76,25.95,1017.59,2022.88,3308.96,3142.17,3400.05,350.05,343.29,24.51,0000 0000 0000 0000 000000
2014-09-30 09:08:44,-0.01,0.50,0.00,27.00,30.92,33.35,4.70,26.02,1017.59,2022.58,3308.13,3141.84,3399.45,349.89,343.28,24.54,0000 0000 0000 0000 000000
2014-09-30 09:13:45,0.00,0.50,0.00,27.02,30.95,33.40,4.70,25.98,1017.59,2022.21,3307.70,3141.09,3398.98,350.16,343.49,24.57,0000 0000 0000 0000 000000
2014-09-30 09:18:47,0.03,0.50,0.00,27.05,30.97,33.41,4.68,26.05,1017.59,2022.07,3306.97,3140.78,3398.28,349.47,342.83,24.60,0000 0000 0000 0000 000000
2014-09-30 09:23:48,0.05,0.51,0.00,27.06,30.99,33.42,4.77,26.12,1017.60,2022.02,3306.21,3140.06,3397.93,350.38,343.70,24.63,0000 0000 0000 0000 000000
2014-09-30 09:28:49,0.06,0.51,0.00,27.09,31.02,33.44,4.67,26.11,1017.59,2022.00,3305.67,3139.72,3397.15,349.84,343.14,24.66,0000 0000 0000 0000 000000
2014-09-30 09:33:50,0.03,0.51,0.00,27.12,31.04,33.46,4.65,26.00,1017.60,2022.00,3305.00,3139.05,3396.86,349.42,342.73,24.69,0000 0000 0000 0000 000000
2014-09-30 09:38:51,0.07,0.51,0.00,27.11,31.06,33.49,4.65,26.04,1017.60,2022.00,3304.30,3138.69,3396.09,349.43,343.00,24.72,0000 0000 0000 0000 000000
2014-09-30 09:43:53,0.04,0.51,0.00,27.12,31.09,33.52,4.74,26.10,1017.60,2021.98,3303.76,3138.05,3395.71,350.16,343.39,24.75,0000 0000 0000 0000 000000
2014-09-30 09:48:54,0.05,0.51,0.00,27.10,31.11,33.56,4.75,26.17,1017.62,2021.97,3303.02,3137.65,3395.02,350.23,343.58,24.77,0000 0000 0000 0000 000000
2014-09-30 09:53:56,0.04,0.51,0.00,27.10,31.13,33.59,4.69,26.14,1017.64,2021.89,3302.36,3137.03,3394.56,349.66,343.10,24.80,0000 0000 0000 0000 000000
2014-09-30 09:58:57,-0.00,0.52,0.00,27.12,31.15,33.60,4.65,25.99,1017.75,2021.55,3301.68,3136.64,3393.97,350.04,343.27,24.83,0000 0000 0000 0000 000000
2014-09-30 10:03:58,0.00,0.52,0.00,27.12,31.17,33.60,4.67,26.07,1017.84,2021.19,3300.99,3136.01,3393.18,350.01,343.33,24.86,0000 0000 0000 0000 000000
2014-09-30 10:08:59,0.04,0.52,0.00,27.12,31.19,33.63,4.65,26.13,1017.83,2021.08,3300.20,3135.53,3392.90,350.09,343.41,24.89,0000 0000 0000 0000 000000
2014-09-30 10:14:00,0.04,0.52,0.00,27.15,31.21,33.64,4.72,26.03,1017.88,2021.02,3299.64,3135.01,3392.12,349.81,343.19,24.92,0000 0000 0000 0000 000000
2014-09-30 10:19:01,0.03,0.52,0.00,27.16,31.22,33.66,4.72,25.95,1017.80,2021.01,3298.98,3134.80,3391.79,350.01,343.31,24.95,0000 0000 0000 0000 000000
2014-09-30 10:24:02,0.07,0.52,0.00,27.17,31.25,33.68,4.72,26.13,1017.94,2021.00,3298.14,3134.06,3391.07,350.58,343.78,24.98,0000 0000 0000 0000 000000
2014-09-30 10:29:04,0.06,0.52,0.00,27.19,31.27,33.70,4.71,25.98,1017.90,2021.00,3297.34,3133.63,3390.72,350.24,343.46,25.01,0000 0000 0000 0000 000000
2014-09-30 10:34:05,0.05,0.52,0.00,27.19,31.28,33.71,4.71,26.02,1017.73,2021.00,3296.65,3133.00,3390.03,350.29,343.40,25.04,0000 0000 0000 0000 000000
2014-09-30 10:39:07,0.07,0.53,0.00,27.19,31.30,33.71,4.69,25.99,1017.71,2020.98,3295.84,3132.33,3389.30,349.82,343.12,25.07,0000 0000 0000 0000 000000
2014-09-30 10:44:08,0.07,0.53,0.00,27.21,31.32,33.75,4.65,25.96,1017.83,2020.93,3294.87,3131.71,3388.53,349.54,342.78,25.10,0000 0000 0000 0000 000000
2014-09-30 10:49:09,0.02,0.53,0.00,27.22,31.33,33.75,4.72,26.07,1017.94,2020.81,3293.97,3131.03,3387.95,350.31,343.44,25.13,0000 0000 0000 0000 000000
2014-09-30 10:54:10,0.05,0.53,0.00,27.21,31.35,33.77,4.71,26.07,1017.94,2020.63,3293.05,3130.38,3387.17,350.04,343.22,25.16,0000 0000 0000 0000 000000
2014-09-30 10:59:11,0.02,0.53,0.00,27.22,31.37,33.79,4.75,26.00,1018.05,2020.24,3291.98,3129.71,3386.40,350.29,343.50,25.18,0000 0000 0000 0000 000000
2014-09-30 11:04:12,0.06,0.53,0.00,27.24,31.37,33.80,4.65,26.10,1018.07,2020.15,3291.06,3129.00,3385.73,350.27,343.44,25.21,0000 0000 0000 0000 000000
2014-09-30 11:09:13,0.06,0.54,0.00,27.24,31.39,33.82,4.70,26.07,1018.08,2020.06,3290.20,3128.24,3384.89,350.10,343.29,25.24,0000 0000 0000 0000 000000
2014-09-30 11:14:15,0.07,0.54,0.00,27.25,31.40,33.82,4.73,26.02,1018.07,2020.04,3289.35,3127.69,3384.11,350.01,343.16,25.27,0000 0000 0000 0000 000000
2014-09-30 11:19:16,0.07,0.54,0.00,27.25,31.42,33.83,4.71,25.99,1018.07,2020.00,3288.27,3126.97,3383.24,349.81,343.08,25.30,0000 0000 0000 0000 000000
2014-09-30 11:24:17,0.08,0.54,0.00,27.25,31.43,33.85,4.67,26.03,1018.08,2020.00,3287.32,3126.15,3382.45,349.33,342.67,25.33,0000 0000 0000 0000 000000
2014-09-30 11:29:19,0.08,0.54,0.00,27.25,31.45,33.87,4.71,25.96,1018.08,2020.00,3286.36,3125.43,3381.80,349.86,343.02,25.36,0000 0000 0000 0000 000000
2014-09-30 11:34:20,0.07,0.55,0.00,27.25,31.45,33.87,4.63,26.02,1018.08,2020.00,3285.36,3124.72,3380.92,349.46,342.92,25.39,0000 0000 0000 0000 000000
2014-09-30 11:39:22,0.07,0.55,0.00,27.25,31.47,33.89,4.66,26.07,1018.08,2020.00,3284.28,3123.94,3380.04,349.72,343.02,25.42,0000 0000 0000 0000 000000
2014-09-30 11:44:23,0.09,0.55,0.00,27.25,31.48,33.90,4.67,26.00,1018.08,2020.00,3283.24,3123.08,3379.15,350.00,343.31,25.45,0000 0000 0000 0000 000000
2014-09-30 11:49:25,0.09,0.55,0.00,27.25,31.50,33.89,4.74,26.05,1018.08,2020.00,3282.17,3122.36,3378.36,350.28,343.54,25.48,0000 0000 0000 0000 000000
2014-09-30 11:54:26,0.08,0.56,0.00,27.25,31.50,33.91,4.66,26.02,1018.07,2019.99,3281.05,3121.59,3377.45,350.21,343.09,25.51,0000 0000 0000 0000 000000
2014-09-30 11:59:27,0.10,0.56,0.00,27.23,31.51,33.92,4.75,26.08,1018.08,2019.96,3279.84,3120.72,3376.56,350.08,343.36,25.54,0000 0000 0000 0000 000000
2014-09-30 12:04:29,0.08,0.56,0.00,27.22,31.52,33.93,4.71,26.02,1018.08,2019.92,3278.68,3119.82,3375.49,350.19,343.48,25.57,0000 0000 0000 0000 000000
2014-09-30 12:09:30,0.05,0.57,0.00,27.24,31.52,33.95,4.69,26.03,1018.08,2019.82,3277.55,3119.01,3374.58,349.71,343.04,25.60,0000 0000 0000 0000 000000
2014-09-30 12:14:31,0.08,0.57,0.00,27.25,31.54,33.94,4.72,26.04,1018.08,2019.73,3276.51,3118.19,3373.76,350.15,343.14,25.62,0000 0000 0000 0000 000000
2014-09-30 12:19:32,0.09,0.57,0.00,27.26,31.55,33.94,4.67,25.98,1018.08,2019.59,3275.23,3117.27,3372.77,350.18,343.43,25.65,0000 0000 0000 0000 000000
2014-09-30 12:24:34,0.05,0.57,0.00,27.25,31.55,33.96,4.76,26.07,1018.08,2019.40,3274.00,3116.46,3371.74,350.43,343.64,25.68,0000 0000 0000 0000 000000
2014-09-30 12:29:35,0.09,0.57,0.00,27.26,31.57,33.95,4.69,25.99,1018.08,2019.20,3272.77,3115.57,3370.74,349.72,343.34,25.71,0000 0000 0000 0000 000000
2014-09-30 12:34:36,0.09,0.58,0.00,27.25,31.57,33.97,4.63,26.08,1018.09,2019.14,3271.56,3114.66,3369.76,349.78,342.94,25.74,0000 0000 0000 0000 000000
2014-09-30 12:39:38,0.08,0.58,0.00,27.26,31.57,33.98,4.75,26.02,1018.09,2019.16,3270.39,3113.79,3368.82,350.08,343.33,25.77,0000 0000 0000 0000 000000
2014-09-30 12:44:39,0.08,0.58,0.00,27.27,31.59,33.98,4.72,26.09,1018.09,2019.18,3269.15,3112.92,3367.85,350.05,343.32,25.80,0000 0000 0000 0000 000000
2014-09-30 12:49:40,0.09,0.59,0.00,27.27,31.60,33.98,4.68,26.01,1018.10,2019.08,3267.88,3112.00,3366.79,349.75,342.79,25.83,0000 0000 0000 0000 000000
2014-09-30 12:54:41,0.11,0.59,0.00,27.27,31.60,33.99,4.80,26.19,1018.09,2019.05,3266.60,3111.08,3365.74,350.52,343.53,25.86,0000 0000 0000 0000 000000
2014-09-30 12:59:42,0.09,0.59,0.00,27.26,31.60,34.00,4.67,26.10,1018.10,2019.04,3265.47,3110.16,3364.74,350.18,343.23,25.89,0000 0000 0000 0000 000000
2014-09-30 13:04:44,0.10,0.59,0.00,27.25,31.61,34.02,4.72,26.08,1018.10,2019.03,3264.19,3109.21,3363.72,350.10,343.37,25.92,0000 0000 0000 0000 000000